Regional Weather Roundup
Issued by NWS

Home | Current Version | Previous Version | Text Only | Print | Product List | Glossary On
Versions: 1 2 3 4 5 6 7 8 9 10 11 12 13 14 15 16 17 18 19 20 21 22 23 24 25 26 27 28 29 30 31 32 33 34 35 36 37 38 39 40 41 42 43 44 45 46 47 48 49 50
000
ASUS44 KFWD 281710
RWRTX
NORTH TEXAS HOURLY WEATHER ROUNDUP
NATIONAL WEATHER SERVICE FORT WORTH TX
1100 AM CST SAT FEB 28 2015

NOTE: "FAIR" INDICATES FEW OR NO CLOUDS BELOW 12,000 FEET WITH NO
SIGNIFICANT WEATHER AND/OR OBSTRUCTIONS TO VISIBILITY.

TXZ118-119-281800-
DALLAS/FORT WORTH METROPLEX

CITY           SKY/WX    TMP DP  RH WIND       PRES   REMARKS
DFW AIRPORT    FRZ RAIN  29  26  89 NE7       30.40R FOG     WCI  22
DALLAS LOVE    FRZ DRZL  30  26  85 E6        30.40S WCI  24
FTW MEACHAM    FRZ RAIN  30  27  88 NE6       30.40R FOG     WCI  24
DAL-EXECUTIVE  CLOUDY    30  27  88 N5        30.39R FOG     WCI  25
FTW-ALLIANCE   FRZ RAIN  28  26  92 NE7       30.40R FOG     WCI  21
FTW-SPINKS     FRZ DRZL  30  27  86 N6        30.41R VSB 1   WCI  24
ARLINGTON      FRZ RAIN  30  25  81 NE6       30.40R WCI  24
GRAND PRAIRIE    N/A     28  28 100 N5        30.42R FOG     WCI  23
ADDISON        FRZ DRZL  28  27  93 NE7       30.40F WCI  21
MESQUITE       CLOUDY    30  27  86 NE7       30.39F WCI  23
LANCASTER      CLOUDY    31  26  84 NE3       30.40F
$$

TXZ091>094-102>105-117-120-121-131>134-281800-
NORTH CENTRAL TEXAS

CITY           SKY/WX    TMP DP  RH WIND       PRES   REMARKS
SHRMAN/DENISON MIX PCPN  29  29  99 E7        30.42F WCI  22
GAINESVILLE    MIX PCPN  27  25  91 E9        30.41F WCI  18
BOWIE          CLOUDY    28  26  95 SE3       30.39R
BRIDGEPORT     MIX PCPN  28  28 100 E6        30.42R WCI  21
DECATUR        CLOUDY    27  26  97 NE8       30.38R FOG     WCI  19
DENTON         FRZ RAIN  28  26  92 E6        30.41R FOG     WCI  22
MCKINNEY       CLOUDY    29  26  89 E9        30.40F WCI  20
GREENVILLE     CLOUDY    32  27  80 NE5       30.42R WCI  27
TERRELL        CLOUDY    34  27  75 E9        30.40S WCI  27
WAXAHACHIE     DRIZZLE   30  30 100 N6        30.40R WCI  24
CLEBURNE       RAIN      28  28 100 CALM      30.39F VSB 1
GRANBURY       DRIZZLE   30  28  91 N3        30.41S
$$

TXZ083>090-098>101-113>116-127>130-139>142-154-155-281800-
WESTERN NORTH TEXAS

CITY           SKY/WX    TMP DP  RH WIND       PRES   REMARKS
WICHITA FALLS  CLOUDY    25  22  88 E8        30.38S FOG     WCI  16
WF-KICKAPOO    CLOUDY    27  24  91 E6        30.40S WCI  20
VERNON         CLOUDY    24  19  83 CALM      30.39R
ABILENE        CLOUDY    23  21  92 NE3       30.32S FOG
ABILENE-DYESS  CLOUDY    22  21  93 CALM      30.31R
BRECKENRIDGE   CLOUDY    28  27  94 E6        30.36S WCI  22
GRAHAM         CLOUDY    26  26  97 CALM      30.36F FOG
MINERAL WELLS  MIX PCPN  28  25  88 NE5       30.38R FOG     WCI  23
STEPHENVILLE   CLOUDY    28  26  92 NE5       30.37F WCI  23
COMANCHE       RAIN      28  28 100 NE7       30.34F WCI  21
BROWNWOOD      PTSUNNY   28  27  93 NE6       30.33S WCI  22
COLEMAN        CLOUDY    27  27 100 NE6       30.32S FOG     WCI  20
$$

TXZ143>147-156>162-174-175-281800-
CENTRAL TEXAS

CITY           SKY/WX    TMP DP  RH WIND       PRES   REMARKS
WACO           FRZ RAIN  31  29  92 N9        30.38R FOG     WCI  23
WACO-MCGREGOR    N/A     30  25  80 CALM      30.38S
HILLSBORO      MIX PCPN  32  28  87 N5        30.38S WCI  27
CORSICANA      LGT RAIN  35  28  75 NE5       30.38S WCI  31
MEXIA          CLOUDY    36  28  72 MISG      30.35R
HEARNE         CLOUDY    39  29  69 E3        30.37R
CAMERON        CLOUDY    37  31  81 NE6       30.34F WCI  32
TEMPLE         CLOUDY    32  27  80 CALM      30.34F
KILLEEN        NOT AVBL
KILLEEN-SKYLRK CLOUDY    30  25  80 CALM      30.33S
FORT HOOD      CLOUDY    30  29  96 N10       30.33S WCI  21
GATESVILLE     PTSUNNY   32  30  93 CALM      30.37F FOG
HAMILTON       CLOUDY    29  29 100 NE7       30.34F WCI  22
LAMPASAS       CLOUDY    30  29  96 NE7       30.32S FOG     WCI  23
$$

TXZ095>097-106>112-122>126-135>138-148>153-164>167-281800-
EAST TEXAS

CITY           SKY/WX    TMP DP  RH WIND       PRES   REMARKS
PARIS          CLOUDY    28  21  74 E13       30.44S WCI  18
SULPHUR SPRNGS DRIZZLE   31  26  80 E10       30.43F WCI  22
MOUNT PLEASANT CLOUDY    32  24  72 E12       30.45S WCI  23
GILMER         CLOUDY    32  23  70 E8        30.41S WCI  25
MINEOLA        CLOUDY    34  28  80 E6        30.40F WCI  29
TYLER          CLOUDY    35  23  61 E13       30.37F WCI  26
LONGVIEW       CLOUDY    36  24  62 E9        30.39F WCI  29
MARSHALL       MOSUNNY   36  25  66 E3        30.43F
ATHENS         CLOUDY    34  27  75 E3        30.38R
PALESTINE      CLOUDY    39  29  67 E8        30.37S WCI  33
JACKSONVILLE   CLOUDY    38  28  66 E8        30.36F WCI  32
HENDERSON      CLOUDY    37  26  65 E9        30.39F WCI  30
NACOGDOCHES    CLOUDY    41  27  56 E9        30.37F WCI  35
LUFKIN         CLOUDY    45  29  53 E8        30.36S
$$

SUPPLEMENTAL OBSERVATIONS (CENTRAL)

CITY           SKY/WX    TMP DP  RH WIND       PRES   REMARKS
$$

SUPPLEMENTAL OBSERVATIONS (WEST)

CITY           SKY/WX    TMP DP  RH WIND       PRES   REMARKS
$$

SUPPLEMENTAL OBSERVATIONS (EAST)

CITY           SKY/WX    TMP DP  RH WIND       PRES   REMARKS
$$

SUPPLEMENTAL OBSERVATIONS ARE A COLLECTION OF AUTOMATED INSTRUMENTS
THAT ARE MAINTAINED BY A VARIETY OF FEDERAL AND STATE AGENCIES.
CERTAIN ELEMENTS...SUCH AS HUMIDITY VALUES AND SUSTAINED WIND
SPEEDS...MAY BE APPROXIMATED.



USA.gov is the U.S. government's official web portal to all federal, state and local government web resources and services.